Home   Weather   China   Shaoxing   Past weeks
Flag for China

Past Weather in Shaoxing, Zhejiang, China — Yesterday and Last 2 Weeks

Currently: 54 °F. Partly sunny. (Weather station: Hangzhou Airport, China). See more current weather

Past Weather in Shaoxing — Graph

°F

Shaoxing Temperature Yesterday

Maximum temperature yesterday: 57 °F (at 1:00 pm)
Minimum temperature yesterday: 50 °F (at 12:00 am)
Average temperature yesterday: 53 °F

High & Low Weather Summary for the Past Weeks

 TemperatureHumidityPressure
High73 °F (Nov 26, 11:30 am)100% (Nov 25, 7:00 am)30.60 "Hg (Nov 25, 7:00 am)
Low32 °F (Dec 1, 4:00 am)47% (Dec 6, 1:00 pm)29.74 "Hg (Nov 28, 1:30 pm)
Average51 °F84%30.23 "Hg
* Reported Nov 24 10:30 am — Dec 9 10:00 am, Shaoxing. Weather by CustomWeather, © 2022

Note: Actual official high and low records may vary slightly from our data, if they occured in-between our weather recording intervals... More about our weather records

Shaoxing Weather History for the Previous 24 Hours

Scroll right to see more
 ConditionsComfort  
Time TempWeatherWind HumidityBarometerVisibility
10:00 am
Fri, Dec 9
52 °FFog.1 mph94%30.21 "Hg2 mi
9:30 am52 °FFog.6 mph94%30.21 "Hg2 mi
9:00 am52 °FFog.6 mph88%30.21 "Hg2 mi
7:30 am52 °FFog.6 mph88%30.18 "Hg2 mi
7:00 am52 °FFog.6 mph88%30.18 "Hg2 mi
6:30 am50 °FFog.6 mph94%30.15 "Hg2 mi
6:00 am50 °FFog.6 mph94%30.15 "Hg2 mi
5:30 am50 °FFog.6 mph94%30.15 "Hg2 mi
5:00 am50 °FFog.6 mph94%30.15 "Hg2 mi
4:30 am50 °FFog.3 mph94%30.15 "Hg2 mi
4:00 am52 °FFog.6 mph88%30.15 "Hg3 mi
3:30 am52 °FFog.6 mph88%30.15 "Hg3 mi
3:00 am54 °FPassing clouds.3 mph82%30.18 "Hg4 mi
2:00 am54 °FPassing clouds.1 mph82%30.18 "Hg4 mi
1:30 am54 °FPassing clouds.3 mph82%30.18 "Hg4 mi
1:00 am54 °FPassing clouds.3 mph77%30.18 "Hg4 mi
12:00 am54 °FPassing clouds.3 mph82%30.18 "Hg4 mi
11:30 pm
Thu, Dec 8
52 °FPassing clouds.No wind88%30.18 "Hg4 mi
11:00 pm54 °FPassing clouds.No wind82%30.18 "Hg4 mi
10:00 pm54 °FPassing clouds.No wind82%30.18 "Hg4 mi
9:30 pm54 °FPassing clouds.1 mph82%30.21 "Hg4 mi
9:00 pm54 °FPassing clouds.No wind88%30.21 "Hg4 mi
8:30 pm54 °FPassing clouds.1 mph88%30.21 "Hg4 mi
8:00 pm54 °FPassing clouds.No wind82%30.18 "Hg4 mi
7:30 pm54 °FPassing clouds.No wind82%30.18 "Hg4 mi
7:00 pm54 °FPassing clouds.No wind82%30.18 "Hg4 mi
6:30 pm54 °FPassing clouds.No wind82%30.18 "Hg4 mi
6:00 pm54 °FPassing clouds.No wind82%30.21 "Hg4 mi
5:30 pm54 °FFog.3 mph82%30.18 "Hg3 mi
5:00 pm54 °FFog.3 mph82%30.18 "Hg3 mi
4:30 pm55 °FFog.6 mph77%30.18 "Hg3 mi
4:00 pm55 °FFog.3 mph77%30.18 "Hg3 mi
3:30 pm55 °FFog.3 mph77%30.18 "Hg3 mi
3:00 pm55 °FFog.6 mph77%30.18 "Hg3 mi
2:30 pm55 °FFog.6 mph77%30.18 "Hg3 mi
2:00 pm57 °FClear.1 mph67%30.18 "Hg4 mi
1:30 pm57 °FClear.1 mph67%30.18 "Hg4 mi
1:00 pm57 °FHaze.1 mph67%30.18 "Hg3 mi
12:30 pm55 °FFog.No wind77%30.18 "Hg2 mi
12:00 pm54 °FFog.No wind88%30.21 "Hg2 mi
11:30 am54 °FLight rain. Fog.1 mph82%30.24 "Hg2 mi
11:00 am54 °FLight rain. Fog.1 mph82%30.24 "Hg2 mi
Weather by CustomWeather, © 2022

See weather overview